Location: Unspecified
(0.0000°N, 0.0000°E)
Time: 01:17:02
(UTC+00:00)

Vanguard 1 Rocket - Pass Details

Date: 10 December 2017
Orbit: 652 x 4225 km, 34.3° (Epoch: 21 July)

Event Time Altitude Azimuth Distance (km) Brightness Sun altitude
Exits shadow 01:43:55 73° 84° (E) 3,686 10.1 -54.6°
Drops below altitude 10° 01:58:55 10° 121° (ESE) 5,216 11.7 -51.7°
Sets 02:02:02 0° 123° (ESE) 5,859 12.1 -51.1°
